Location: Newark
(40.3820°N, 3.6624°W)
Time: 16:41:39
(UTC+00:00)

N. Korean satellite - Pass Details

Date: 24 November 2019
Orbit: 456 x 506 km, 97.2° (Epoch: 07 December)

Event Time Altitude Azimuth Distance (km) Brightness Sun altitude
Rises 05:35:08 0° 21° (NNE) 2,599 10.4 -17.9°
Reaches altitude 10° 05:37:24 10° 32° (NNE) 1,704 9.6 -17.5°
Maximum altitude 05:40:44 32° 97° (E) 863 8.5 -16.9°
Drops below altitude 10° 05:43:59 10° 162° (SSE) 1,666 9.7 -16.3°
Sets 05:46:10 0° 172° (S) 2,531 10.5 -15.9°
